RH
81 82 83 96 99 99 93 83 83 90 90 68 39 70 73 72 66 68 79 78 90 89 81 84 93 94 88 81 88 91 92 90 93
82 81 80 85 94 96 94 96 83 76 67 50 52 61 71 71 68 69 78 78 86 88 89 88 96 97 97 94 90 93 93 92 86
84 88 86 86 91 93 93 82 59 48 51 53 55 63 71 71 66 70 67 71 86 92 92 94 96 95 96 96 94 94 94 91 94
80 75 86 92 93 83 69 65 58 59 61 62 64 69 74 68 65 67 64 69 88 88 91 91 92 96 98 97 98 98 97 99 99
81 66 71 73 66 60 58 60 64 65 67 68 70 72 72 70 73 68 69 73 82 87 87 94 97 92 97 95 92 89 94 95 96
84 72 61 63 60 63 64 68 69 70 68 68 66 55 58 67 66 61 60 70 78 83 93 93 91 92 91 89 88 87 88 89 93
89 78 60 62 63 65 70 71 73 74 68 67 62 52 53 57 55 54 52 51 70 92 93 88 88 87 87 84 82 81 82 85 87
93 82 72 65 66 69 74 74 74 63 69 57 51 47 46 46 45 42 39 58 74 87 88 85 82 80 77 74 73 75 77 80 78
91 82 80 63 65 70 75 75 65 57 54 45 40 40 40 38 36 32 33 34 89 84 83 74 71 67 66 66 67 67 67 72 74
85 81 64 62 65 72 76 75 61 51 43 39 34 30 26 27 28 31 37 53 86 82 71 68 67 65 63 64 65 67 69 72 72
83 79 64 68 70 72 76 64 58 48 42 37 30 25 24 25 27 33 38 45 65 70 65 58 56 55 55 62 67 68 70 74 76
74 67 66 69 73 75 67 58 50 47 42 32 26 24 23 23 28 34 38 38 38 44 50 48 48 47 50 55 59 62 71 74 74
61 59 64 71 74 68 60 52 47 43 35 24 22 24 24 24 29 34 36 36 33 33 31 32 39 43 47 51 57 58 65 70 73
60 59 68 70 67 61 57 51 46 37 26 21 19 21 23 29 31 34 35 34 32 30 29 26 23 22 33 45 50 54 58 64 68
61 64 68 68 66 58 51 48 40 28 22 20 22 24 28 33 30 32 34 33 30 30 28 25 24 23 23 32 43 48 54 60 65
63 68 68 66 61 54 48 44 30 24 20 23 26 30 31 32 30 32 33 32 31 30 28 25 24 24 25 25 35 42 49 53 58
69 68 68 64 55 48 46 42 27 24 19 20 32 39 32 31 35 34 35 35 31 28 26 26 27 26 27 27 30 32 41 48 54
70 70 70 64 54 50 46 33 27 27 21 18 28 45 39 36 25 34 40 30 27 27 26 24 24 28 28 28 29 29 41 47 52
76 75 72 64 54 49 39 29 28 29 25 21 19 20 24 28 23 27 32 27 26 26 22 24 23 25 29 30 31 32 50 46 52
82 80 71 62 49 42 33 30 33 28 26 25 24 25 26 27 33 32 34 29 27 23 24 22 27 31 31 29 34 56 55 55 57
Wind_Speed
12 11 12 13 13 13 12 11 10 9 7 6 9 11 8 5 6 7 6 6 5 4 4 5 4 4 3 3 5 5 4 4 4
12 11 12 13 13 12 11 10 8 6 5 7 9 9 6 8 8 7 5 6 5 4 4 5 7 10 9 12 4 5 5 4 5
12 12 13 13 13 11 10 9 7 6 6 7 9 8 6 7 7 5 5 4 6 6 7 8 9 9 8 8 10 9 4 2 3
11 12 13 12 12 11 10 8 8 8 8 8 8 7 6 5 5 4 3 3 5 6 6 6 6 6 9 9 9 11 12 11 10
11 11 11 11 10 10 10 10 10 9 9 7 6 3 2 4 6 5 4 3 6 6 6 6 9 8 10 10 10 9 10 11 12
12 10 10 10 9 9 10 10 10 10 9 8 6 4 3 6 6 5 3 5 6 6 7 8 8 8 8 9 10 10 10 11 11
16 12 11 10 9 10 10 9 9 8 8 6 4 5 6 6 4 3 2 3 5 8 8 8 7 7 8 8 9 9 9 10 10
18 15 13 12 11 11 11 10 8 5 11 5 5 4 5 4 3 1 1 5 7 7 6 7 7 7 7 7 8 8 8 9 10
21 18 15 14 14 13 11 9 9 8 8 7 5 3 4 3 2 1 0 3 9 8 6 6 7 7 7 7 7 7 7 8 9
23 19 16 16 16 15 13 12 10 8 8 6 4 3 4 4 3 1 2 7 10 8 6 6 6 6 6 6 7 7 7 7 9
26 22 18 18 17 15 14 14 12 10 7 6 4 3 3 3 3 2 4 5 7 7 6 5 5 6 6 7 7 7 7 8 9
27 23 22 19 18 17 19 15 13 9 7 5 3 4 3 4 5 5 6 6 6 5 5 5 5 6 7 7 8 8 7 9 9
27 25 24 22 21 21 20 16 12 9 7 5 5 5 3 4 7 7 7 5 4 3 1 1 4 5 7 7 9 8 7 10 9
27 26 26 26 24 22 19 15 12 9 6 5 5 6 3 4 8 8 7 4 2 2 2 5 5 6 8 8 9 9 8 10 9
28 28 29 27 24 22 19 16 13 10 7 6 6 6 4 6 6 7 7 5 4 3 4 5 6 10 12 9 9 11 10 8 9
31 32 31 28 27 24 20 16 13 9 6 5 4 5 5 6 7 8 8 7 6 5 4 4 8 12 14 14 11 12 9 10 12
35 37 33 30 27 23 21 19 15 7 7 5 3 1 2 6 8 9 9 8 8 5 3 6 8 12 12 13 14 14 11 11 14
40 38 36 32 29 26 23 21 16 11 7 6 4 2 4 1 3 8 9 8 8 5 3 10 12 9 12 15 14 15 12 13 15
41 39 34 33 29 25 23 19 16 12 10 7 4 3 3 2 1 3 7 8 7 5 12 11 14 12 10 12 14 15 14 16 18
39 37 35 31 28 24 22 19 15 12 11 7 6 4 3 3 2 2 3 6 9 13 9 16 8 10 10 13 11 12 13 17 20
Wind_Direction
140 142 144 148 143 137 136 140 138 137 133 118 121 129 121 81 107 95 90 50 57 69 43 18 337 307 322 299 267 270 279 288 281
141 140 144 150 151 146 144 143 143 135 123 110 126 135 110 98 106 118 78 46 44 58 61 53 34 50 46 30 249 265 278 282 282
144 141 143 144 149 151 150 149 145 133 119 114 127 128 113 99 112 97 72 41 50 43 46 47 50 40 49 45 46 48 28 293 330
151 151 150 150 150 151 149 145 138 128 120 118 120 121 122 108 133 109 89 44 69 57 54 49 42 68 52 46 45 47 45 44 45
163 160 161 160 159 156 152 147 138 128 120 118 118 103 111 132 146 131 108 83 71 73 64 71 67 62 58 51 48 42 43 39 42
186 175 172 171 166 159 151 146 142 133 129 129 116 88 116 162 145 118 86 71 79 78 92 80 70 68 54 46 41 39 40 40 41
194 186 179 176 169 160 156 155 158 162 149 142 139 131 133 152 154 125 67 44 93 107 95 81 78 69 57 43 39 34 34 35 32
198 193 186 185 177 170 169 170 170 161 168 160 150 152 158 164 165 151 51 88 118 114 96 84 74 66 55 43 38 33 33 29 22
197 198 198 194 186 179 175 181 172 163 171 171 169 205 248 250 250 241 170 102 133 127 108 84 76 66 55 42 36 27 21 18 15
200 199 200 196 193 191 194 190 184 181 178 186 195 218 252 263 272 192 141 156 135 127 108 92 78 60 41 30 26 20 17 11 5
205 202 199 198 196 201 205 188 192 192 198 216 223 215 239 250 247 187 163 171 155 134 114 87 65 50 26 18 18 10 6 1 359
205 209 201 206 207 197 189 193 193 199 205 212 217 192 213 240 217 188 177 176 171 155 117 84 52 47 21 13 9 359 360 0 357
208 206 208 201 190 187 188 191 196 207 213 214 207 201 212 235 199 191 187 187 181 184 168 26 52 35 18 5 355 349 351 350 350
213 209 203 193 190 191 198 196 204 202 205 208 206 191 203 218 194 198 194 195 229 232 292 319 343 357 355 353 348 342 333 334 336
211 210 199 196 193 193 195 199 195 199 200 199 200 191 181 191 205 204 204 221 221 255 295 321 342 344 346 348 341 336 321 321 323
213 210 200 199 201 201 198 191 189 181 195 178 170 188 192 190 199 213 224 228 228 258 292 318 327 331 337 340 341 333 318 313 314
206 204 201 203 201 197 197 196 183 178 182 173 148 182 231 218 216 217 224 226 221 224 253 311 322 320 324 330 329 326 314 310 311
207 206 207 203 203 200 200 198 198 177 170 186 180 105 223 245 220 214 214 207 203 208 271 308 320 330 320 317 318 320 311 308 308
208 208 206 201 199 201 199 197 202 199 178 160 172 182 155 169 316 195 194 189 201 265 311 318 321 318 323 319 317 313 303 302 303
202 203 199 197 193 193 194 195 200 204 194 180 167 185 150 165 131 250 270 239 251 295 306 323 329 322 338 331 331 337 322 309 305